Regional Weather Roundup
Issued by NWS

Home | Current Version | Previous Version | Graphics & Text | Print | Product List | Glossary On
Versions: 1 2 3 4 5 6 7 8 9 10 11 12 13 14 15 16 17 18 19 20 21 22 23 24 25 26 27 28 29 30 31 32 33 34 35 36 37 38 39 40 41 42 43 44 45 46 47 48 49 50
000
ASUS43 KLSX 041507
RWRMO

WEATHER SUMMARY FOR MISSOURI
NATIONAL WEATHER SERVICE SPRINGFIELD MO
900 AM CST WED MAR 04 2015

NOTE: "FAIR" INDICATES FEW OR NO CLOUDS BELOW 12,000 FEET WITH NO
       SIGNIFICANT WEATHER AND/OR OBSTRUCTIONS TO VISIBILITY.
       CURRENT SKY AND/OR WEATHER CONDITIONS ARE NOT AVAILABLE FOR
       CHILLICOTHE AND FARMINGTON.

MOZ001>031-035>038-043-044-053-054-041600-
...NORTHERN AND WESTERN MISSOURI...

CITY           SKY/WX    TMP DP  RH WIND       PRES   REMARKS
KANSAS CTY INT PTSUNNY   21   8  57 N14G21    30.29R WCI   8
KANSAS C DTWN  CLOUDY    23   8  52 N13       30.31R WCI  11
LEE`S SUMMIT   LGT SNOW  19  12  74 N12       30.29R WCI   7
ST JOSEPH      MOSUNNY   20   9  62 N13       30.33R WCI   7
CHILLICOTHE      N/A     21   3  45 N7G22     30.31R WCI  12

$$
MOZ066>068-077>081-088>096-101>105-041600-
...SOUTHWEST MISSOURI...

CITY           SKY/WX    TMP DP  RH WIND       PRES   REMARKS
SPRINGFIELD    LGT SNOW  25  22  88 N15       30.15R VSB 3/4 WCI  13
JOPLIN         LGT SNOW  22  18  85 N16G25    30.19R FOG     WCI   8

$$
MOZ032>034-039>042-045>050-055>058-069>072-041600-
...CENTRAL MISSOURI...

CITY           SKY/WX    TMP DP  RH WIND       PRES   REMARKS
COLUMBIA       CLOUDY    20   8  60 N17       30.23R WCI   5
JEFFERSON CITY LGT SNOW  20  16  84 N7        30.25R FOG     WCI  11
ROLLA          LGT SNOW  21  11  65 N14       30.16R WCI   8
SEDALIA        CLOUDY    21  10  62 N18       30.26R WCI   6
WHITEMAN AFB   CLOUDY    20  10  63 N17       30.25R WCI   6
WARRENSBURG    CLOUDY    21  10  63 N14G20    30.28R WCI   8
OSAGE BEACH    CLOUDY    21  18  86 NE12      30.23R VSB 1/4 WCI   9

$$
MOZ051-052-059>065-041600-
...EAST CENTRAL MISSOURI...

CITY           SKY/WX    TMP DP  RH WIND       PRES   REMARKS
ST LOUIS INTL  CLOUDY    22   9  57 N15       30.21R WCI   9
SPIRIT OF STL  CLOUDY    22   9  57 N16       30.21R WCI   8
ST CHARLES     CLOUDY    20   8  60 NW14      30.23R WCI   7

$$
MOZ072>076-082>087-097>100-106>115-041600-
...SOUTH CENTRAL AND SOUTHEAST MISSOURI...

CITY           SKY/WX    TMP DP  RH WIND       PRES   REMARKS
CAPE GIRARDEAU RAIN      34  33  96 N12       30.07R FOG     WCI  25
FARMINGTON     CLOUDY    27  21  80 N13G21    30.14R WCI  16
POPLAR BLUFF   LGT RAIN  35  31  85 N13       30.07R FOG     WCI  26
WEST PLAINS    FRZ RAIN  32  28  85 N15G23    30.08R FOG     WCI  22

$$



USA.gov is the U.S. government's official web portal to all federal, state and local government web resources and services.